Sheffield 2018 Santa Fun Run/Walk Results

If you have any questions about these results then please contact the race organiser.

 
Pos.PositionBib NameNameClubGenderDistance Net TimeNet Time Gun TimeGun TimeShare
1/128621Isaac SmithM5K0:22:020:22:06
2/128622Issobelle SmithHallamshire HarriersF5K0:23:350:23:36
3/128584Sigitas MataitisM5K0:24:140:24:16
4/128576James LeeTeam ManversM5K0:24:150:24:27
5/128574Adam LeeTeam ManversM5K0:24:160:24:28
6/128530Keeley BrownF5K0:24:320:24:32
7/128563Paul GreensmithM5K0:24:400:24:44
8/128512Mary BarabeF5K0:24:500:24:58
9/128609Stephen RowbothamM5K0:24:500:24:59
10/128641Michael ThomasM5K0:24:580:25:04
11/128642Paul ThomasM5K0:24:580:25:04
12/128522Peter BrashM5K0:25:090:25:13
13/128656Gemma WilliamsonF5K0:25:140:25:21
14/128565Amelia HartleyF5K0:25:330:25:33
15/128566Bob HartleyM5K0:25:340:25:34
16/128639David StockdaleM5K0:25:570:26:08
17/128508Sally Baines-YoungF5K0:26:340:26:36
18/128550Jess DewsburyF5K0:28:060:28:23
19/128561Molly GranthamF5K0:28:490:28:50
20/128562Peter GranthamM5K0:28:550:28:57
21/128646David TurnerM5K0:28:570:29:02
22/128573Estelle LeakeF5K0:29:340:29:35
23/128531Leanne BryanF5K0:29:330:29:35
24/128633Henry SpearM5K0:29:220:29:39
25/128658Emily WinderF5K0:29:290:29:50
26/128572Lisa KerryF5K0:29:290:29:50
27/128590Gareth MooreM5K0:29:490:29:54
28/128661Andrew WinnerM5K0:29:490:29:54
29/1281042Chelle FarmerF5K0:29:460:29:55
30/128627Rachel SmithF5K0:29:580:29:59
31/128581Lisa LongfordF5K0:29:590:29:59
32/128516Jack BattyM5K0:29:560:30:09
33/128553Andy DobsonM5K0:30:050:30:25
34/128526Trevor BrenardM5K0:30:090:30:26
35/128523Louise BrenardF5K0:30:090:30:27
35/128524Harry BrenardM5K0:30:080:30:27
37/128651Claire Walton SpendloveF5K0:30:280:30:35
38/128657Deborah WilsonF5K0:30:280:30:35
38/128548Deborah DeardenF5K0:30:280:30:35
40/128519Aaron BeverleyM5K0:30:420:30:56
41/128611Poppy SalesF5K0:31:030:31:05
42/128613Andy Sales1M5K0:31:050:31:08
43/128636David SteeleM5K0:30:580:31:08
44/128602Jessica PollardF5K0:31:130:31:24
45/128529Emily BroomheadF5K0:31:220:31:33
46/128511Oliver BandinelliM5K0:31:290:31:34
47/128510Jessica BandinelliF5K0:31:290:31:35
48/128645Rebecca ThorneF5K0:31:300:31:36
49/128592Oscar MorewoodM5K0:31:340:31:38
50/128610Philippa SalesF5K0:31:350:31:38
51/128612Eva SalesF5K0:31:360:31:39
52/128591Kelly MorewoodF5K0:31:490:31:53
53/128527Olivis BriggsBarnsley HarriersF5K0:31:410:32:06
54/128552James DingwallM5K0:32:190:32:22
55/128634Kevern StaffordM5K0:32:400:33:00
56/128635Ruth StaffordF5K0:32:400:33:00
57/128578Cathy LewisF5K0:33:380:33:56
58/128542Daisy CrowtherF5K0:34:130:34:24
59/128543Hannah CrowtherF5K0:34:130:34:24
60/128567Lucy HaywoodF5K0:34:230:34:35
61/128515Claire BattyF5K0:34:230:34:35
62/128623Kevin SmithM5K0:34:390:34:54
63/128647Helen TwelvesF5K0:34:470:34:58
64/128624Louie SmithM5K0:34:390:34:59
65/128630Rosie SmithF5K0:34:410:35:02
66/128520Jodie BeverleyF5K0:34:550:35:12
67/128629Reuben SmithM5K0:34:590:35:20
68/128625Mark SmithM5K0:35:000:35:20
69/128587Vicky MellorF5K0:35:360:35:41
70/128514Hannah Barton AllenF5K0:35:400:35:45
71/128525Millie BrenardF5K0:35:360:35:54
72/128618Ella SmithF5K0:35:500:36:05
73/128648Kelly ValeisaF5K0:35:500:36:05
74/128628Ray SmithM5K0:35:500:36:06
75/128660Owen WinderM5K0:36:060:36:28
76/128659Liam WinderM5K0:36:070:36:29
77/128632Claire SpearF5K0:36:330:36:49
78/128533Jenfie CVegan Runners UKF5K0:36:420:36:50
79/128505Kieran AylingM5K0:36:430:36:51
80/128663Jennie WoodF5K0:37:260:37:42
81/128528Stacey BroadmeadowF5K0:37:230:37:46
82/128538Nick ClarkeM5K0:37:490:38:08
83/128537Grace ClarkeF5K0:37:510:38:10
84/128560Thea Gates-LoaderF5K0:38:280:38:39
85/128579Mark LoaderM5K0:38:280:38:40
86/128666Tracey WorthF5K0:38:340:38:45
87/128665Tarcey WorthF5K0:38:340:38:46
88/128589Ruth MinnisF5K0:38:250:38:47
89/128536Natalie ClarkF5K0:38:590:39:16
90/128631Zoe SmithF5K0:40:070:40:16
91/128650Madison ValeisaF5K0:40:080:40:16
92/128596Angie NashF5K0:40:360:40:38
93/128616Allison SmithF5K0:40:380:40:39
94/128547Chloe DayF5K0:40:380:40:52
95/128546Celine DayF5K0:40:410:40:55
96/128544Isla DarbyF5K0:40:300:40:55
97/128599Richard ParkinsonM5K0:40:300:40:56
98/128504Kamal AssafM5K0:40:480:40:57
99/128607Paula RodgersF5K0:40:480:40:57
100/128637Khulan StevensF5K0:40:530:41:01
101/128549Nadine DevotoF5K0:39:500:41:07
102/128556Kaysie FitzjohnM5K0:39:520:41:07
103/128662Alison WithamF5K0:40:590:41:08
104/128638Selenge StevensF5K0:41:000:41:09
105/128644Jil ThompsonF5K0:41:260:41:51
106/128513Simon BarnesM5K0:44:360:44:36
107/128582Gillian MarriottF5K0:44:320:44:42
108/128615Charlotte SinclairF5K0:44:390:44:58
109/128626Olivia SmithF5K0:45:120:45:29
110/128640Angela TempleF5K0:45:120:45:29
111/128521Caroline BrashF5K0:45:120:45:29
112/128620Gemma SmithF5K0:45:150:45:30
113/128619Fran SmithF5K0:45:160:45:31
114/1282109Andrew BeverleyM5K0:45:220:45:37
115/128649Lexi ValeisaF5K0:45:350:45:44
116/128600Robert PeacockM5K0:32:070:46:17
117/128601Stepanie PeacockF5K0:32:070:46:17
118/128643Claudia ThompsonBarnsley HarriersF5K0:46:530:47:19
119/128545Jessica DarbyF5K0:46:530:47:19
120/128557Rhylie FitzjohnM5K0:48:320:49:46
121/128559Kim FowlerF5K0:48:340:49:51
122/128588Amelia MilnesF5K0:52:080:52:13
123/1281124Jannette StorerF5K0:53:560:53:56
124/128653Dan WestonM5K0:57:110:57:34
125/128586Samantha McleanF5K0:53:390:57:42
126/128585Angela McleanF5K0:53:390:57:43
127/128652Rebecca WatkinsF5K0:39:270:59:51
128/128539Susan CoatesF5K0:39:270:59:51
1/1251125Nicola StoreyF10K0:28:220:33:40
2/1252139James MellorSheffield Triathlon ClubM10K0:34:340:34:34
3/1251152David WrightM10K0:40:000:40:03
4/1252103Christopher AllanM10K0:41:430:41:44
5/1251079Adam MillarM10K0:43:280:43:39
6/1251063Sean KellyM10K0:44:270:44:33
7/1252134Kathryn LakeF10K0:44:140:44:36
8/1252163Sam WebbM10K0:44:150:44:37
9/1251120Jennie StevensF10K0:43:480:45:01
10/1251082Simon OldfieldM10K0:44:500:45:04
11/1251046Barry FuschilloM10K0:44:520:45:06
12/1251031Keith CrootM10K0:45:380:45:39
13/1252137Robert McdonaldM10K0:45:590:46:02
14/1251086James PalmerM10K0:46:210:46:27
15/1251069Rob LeckeyM10K0:46:260:46:27
16/1251037Helen DevittF10K0:47:210:47:46
17/1251028Kurt ClemensM10K0:47:210:47:46
18/1251073Sarah LumbardF10K0:48:410:48:44
19/1251072Ross LumbardM10K0:48:410:48:44
20/1251051Alfred HallM10K0:48:510:49:07
21/1251067Scott KnightM10K0:49:170:49:41
22/1251013Luke BarnesM10K0:49:480:49:52
23/1251045Colin FranceM10K0:49:480:49:52
24/1251106Rosemary RoylesSteel City Striders RCF10K0:50:390:50:42
25/1251076Philippa MalenoirF10K0:50:440:51:09
26/1251039Andrew EbletRotherham Harriers & ACM10K0:50:520:51:10
27/1251035Gareth DaviesM10K0:50:450:51:10
28/1251099David RipleyM10K0:50:520:51:10
29/1251121David StocksM10K0:51:040:51:13
30/1251113Daniel ShawM10K0:51:080:51:14
31/1251122Rebecca StocksKimberworth StridersF10K0:51:060:51:14
32/1251141Pete WaltonM10K0:51:100:51:20
33/1251007Robert AshcroftStainland Lions Running ClubM10K0:51:130:51:21
34/1251114Paul ShawStainland Lions Running ClubM10K0:51:210:51:30
35/1251003Colin AllanM10K0:51:220:51:31
36/1251105Anna RoskillyF10K0:52:050:52:28
37/1251050Tristan GillM10K0:53:140:53:15
38/1251029Carole CliffordRothwell Harriers & ACF10K0:53:120:53:19
39/1251027Po Yan ChanF10K0:53:090:53:31
40/1251131Adrian ThompsonM10K0:53:130:53:32
41/1251095Jim RangeleyM10K0:53:500:53:54
42/1251005Sofie ArmitageF10K0:54:020:54:09
43/1251142Alan WardMorpeth Harriers & ACM10K0:54:020:54:15
44/1251118Lee SnowdenM10K0:54:080:54:17
45/1251135Samantha TurkStrideoutF10K0:54:230:54:33
46/1251145Danielle WestonF10K0:54:300:54:41
47/1251024Jessica BurkeF10K0:54:300:54:41
48/1251127Helen SweatonF10K0:53:120:55:02
49/1251084Jo OwensF10K0:55:020:55:05
50/1251052Jeanine HallF10K0:55:230:55:26
51/1252153Allison SmithF10K0:55:370:55:37
52/1252161Sally WalkerF10K0:55:370:55:37
53/1251068Karolina Kujawa-GlowackaF10K0:56:020:56:22
54/1251092Sarah PlumbF10K0:56:230:56:37
55/1251060Ruth IvesKingstone Runners BarnsleyF10K0:57:090:57:21
56/1251011Glen BanksM10K0:57:090:57:22
57/1251012Jane BanksKingstone Runners BarnsleyF10K0:57:090:57:22
58/1251103Amy RonksleyF10K0:57:150:57:33
59/1251043Peter FearnM10K0:57:150:57:33
60/1251136Kerry TurnerF10K0:57:280:57:33
61/1251117Mary SmithemF10K0:57:290:57:34
62/1251616Jacqui NaylorF10K0:57:310:57:37
63/1251085Ian PadgettM10K0:57:360:57:44
64/1251102Gillian Robinson-SmithHandsworth RoadhogsF10K0:58:030:58:13
65/1251149Kerry WisemanHandsworth RoadhogsF10K0:58:030:58:13
66/1251034Myles DansonM10K0:58:080:58:27
67/1251112Ainsley ShadwickF10K0:58:270:58:36
68/1251111Grace ScurfieldF10K0:58:370:58:38
69/1251620Angelica ZapataF10K0:58:410:58:46
70/1251033Diane DansonF10K0:58:300:58:49
71/1251108Katherine SalinskyF10K0:58:400:58:58
72/1251123Graham StorerM10K0:59:110:59:12
73/1251144Danny WearinM10K0:59:060:59:28
74/1251074Emma MacinnesF10K0:57:490:59:28
75/1251075Jamie MacinnesM10K0:57:500:59:29
76/1251151Georgia WoodF10K0:59:110:59:29
77/1251070Emma LichfieldKings Heath RC The LionsF10K0:59:140:59:36
78/1251088Tina PassValley Hill RunnersF10K0:59:160:59:37
79/1251066Judith KippaxValley Hill RunnersF10K0:59:170:59:37
80/1251155Rachel Yarwood-MurrayKingstone Runners BarnsleyF10K0:59:160:59:37
81/1251096Laura RangeleyF10K0:59:350:59:39
82/1251001Honor AdlingtonF10K0:59:581:00:13
83/1251002Stuart AdlingtonM10K0:59:571:00:13
84/1251008Catherine AskhamF10K1:00:031:00:17
85/1251038Siobhan DreweryF10K0:59:541:00:18
86/1251032Meadow CrowtherF10K1:00:081:00:24
87/1251040Charlotte EllisF10K1:00:081:00:24
88/1251041Joe EllisM10K1:00:161:00:32
89/1251062Debs JoynerF10K0:58:421:00:33
89/1251128Donna TaylorF10K0:58:421:00:33
91/1251133Allana TongeF10K1:00:141:00:39
92/1251053Frances HandleyM10K1:00:141:00:39
93/1251101Rebecca RobinsonF10K1:00:411:00:43
94/1251009Peter AtkinM10K1:01:011:01:08
95/1251156Alon YoungM10K1:01:571:02:16
96/1251139Clare WakemanF10K1:02:101:02:22
97/1251132Tracy ThornhillF10K1:02:041:02:28
98/1251093Martyna ProrokF10K1:02:091:02:33
99/1251025Gary CarrM10K1:02:211:02:35
100/1251091Annie PlumbF10K1:02:281:02:42
101/1251098Rosie RichardsonF10K1:02:591:03:25
102/1251017Sarah DibbF10K1:02:591:03:25
103/1251126Rebecca SwalesF10K1:04:161:04:30
104/1251014Katie BarnettF10K1:04:331:04:40
105/1251097Deborah ReesF10K1:04:341:04:41
106/1251081Catherine NewsomeF10K1:04:191:04:45
107/1251153Katie WrightF10K1:05:061:05:19
108/1251022Caire BrightF10K1:05:051:05:19
109/1251004Fiona ArmitageF10K1:05:211:05:28
110/1251077Patrick McgovernM10K1:05:381:05:55
111/1251058Rachael HowardF10K1:01:391:07:19
112/1251107Mary RushforthF10K1:01:391:07:19
113/1251019Mitchell BlakeM10K1:08:181:08:42
114/1251150Kevin WongM10K1:04:561:10:29
115/1251015Shaun BellM10K1:04:551:10:29
116/1251110Thalia ScottF10K1:04:561:10:29
117/1251061Nicola JacksonF10K1:08:451:14:18
118/1251056Laura HeskinsF10K1:09:211:14:47
119/1251059Tom HowardM10K1:09:211:14:47
120/1251055Louise HaytonQueensbury Running ClubF10K1:14:391:14:50
121/1251020Jo BottomleyQueensbury Running ClubF10K1:14:421:14:53
122/1251137Angela WaddingtonQueensbury Running ClubF10K1:14:421:14:53
123/1251140Zena WalkerF10K1:14:361:14:55